| time (UTC) | temp F | wind direction | speed knots | gust knots | rain 1hr in | rain 24hr in | rain mn in | humidity % | barometer mb |
| 20260507085005 | 63 | 59 | 4.3 | 7.8 | 0.00 | 0.01 | 0.00 | 71 | 1013.9 |
| 20260507084004 | 62 | 29 | 2.6 | 6.1 | 0.00 | 0.01 | 0.00 | 72 | 1013.9 |
| 20260507083005 | 61 | 359 | 4.3 | 8.7 | 0.00 | 0.01 | 0.00 | 74 | 1013.8 |
| 20260507082005 | 61 | 30 | 2.6 | 8.7 | 0.00 | 0.01 | 0.00 | 75 | 1013.8 |
| 20260507081005 | 60 | 38 | 5.2 | 10.4 | 0.00 | 0.01 | 0.00 | 76 | 1013.8 |
| 20260507080005 | 60 | 354 | 4.3 | 10.4 | 0.00 | 0.01 | 0.00 | 77 | 1013.8 |
| 20260507074004 | 59 | 13 | 5.2 | 8.7 | 0.00 | 0.01 | 0.00 | 77 | 1013.8 |
| 20260507073005 | 59 | 356 | 5.2 | 8.7 | 0.00 | 0.01 | 0.00 | 78 | 1013.8 |
| 20260507070009 | 56 | 23 | 5.2 | 7.8 | 0.00 | 0.01 | 0.00 | 83 | 1013.9 |
| 20260507065005 | 56 | 35 | 3.5 | 7.8 | 0.00 | 0.01 | 0.00 | 84 | 1013.8 |
| 20260507063005 | 54 | 24 | 3.5 | 7.0 | 0.00 | 0.01 | 0.00 | 87 | 1013.9 |
| 20260507062004 | 54 | 23 | 2.6 | 6.1 | 0.00 | 0.01 | 0.00 | 91 | 1013.8 |
| 20260507061004 | 52 | 134 | 0.0 | 0.9 | 0.00 | 0.01 | 0.00 | 92 | 1013.7 |
| 20260507055005 | 50 | 155 | 0.9 | 2.6 | 0.00 | 0.01 | 0.00 | 93 | 1013.7 |
| 20260507054004 | 50 | 131 | 1.7 | 2.6 | 0.00 | 0.01 | 0.00 | 93 | 1013.6 |
| 20260507052006 | 48 | 329 | 0.9 | 2.6 | 0.00 | 0.01 | 0.00 | 94 | 1013.4 |
| 20260507051004 | 47 | 151 | 0.0 | 1.7 | 0.00 | 0.01 | 0.00 | 94 | 1013.4 |
| 20260507050005 | 47 | 151 | 0.9 | 1.7 | 0.00 | 0.01 | 0.00 | 93 | 1013.2 |
| 20260507045004 | 47 | 151 | 0.9 | 2.6 | 0.00 | 0.01 | 0.00 | 92 | 1013.0 |
| 20260507044007 | 47 | 311 | 0.0 | 0.0 | 0.00 | 0.01 | 0.00 | 93 | 1012.9 |
| 20260507043004 | 47 | 314 | 0.0 | 0.0 | 0.00 | 0.01 | 0.00 | 92 | 1012.9 |
| 20260507042004 | 47 | 322 | 0.0 | 0.0 | 0.00 | 0.01 | 0.00 | 92 | 1012.8 |
| 20260507041005 | 47 | 294 | 0.0 | 1.7 | 0.00 | 0.01 | 0.00 | 92 | 1012.9 |
| 20260507035006 | 48 | 307 | 0.9 | 2.6 | 0.00 | 0.01 | 0.00 | 92 | 1012.8 |
| 20260507034006 | 48 | 306 | 0.9 | 2.6 | 0.00 | 0.01 | 0.00 | 92 | 1012.8 |
| 20260507033006 | 48 | 340 | 0.9 | 1.7 | 0.00 | 0.01 | 0.00 | 92 | 1012.8 |
| 20260507032006 | 48 | 355 | 0.0 | 1.7 | 0.00 | 0.01 | 0.00 | 91 | 1012.8 |
| 20260507031006 | 48 | 43 | 0.0 | 0.0 | 0.00 | 0.01 | 0.00 | 91 | 1012.8 |
| 20260507030006 | 48 | 43 | 0.0 | 0.0 | 0.00 | 0.01 | 0.00 | 91 | 1012.8 |
| 20260507024006 | 49 | 43 | 0.0 | 0.9 | 0.00 | 0.01 | 0.00 | 90 | 1012.8 |
| 20260507023006 | 49 | 43 | 0.9 | 1.7 | 0.00 | 0.01 | 0.00 | 90 | 1012.6 |
| 20260507022006 | 49 | 284 | 0.9 | 2.6 | 0.00 | 0.01 | 0.00 | 90 | 1012.6 |
| 20260507021006 | 49 | 318 | 1.7 | 2.6 | 0.00 | 0.01 | 0.00 | 90 | 1012.7 |
| 20260507020006 | 49 | 348 | 0.9 | 1.7 | 0.00 | 0.01 | 0.00 | 90 | 1012.7 |
| 20260507015004 | 50 | 318 | 0.9 | 2.6 | 0.00 | 0.01 | 0.00 | 90 | 1012.7 |
| 20260507013006 | 50 | 294 | 0.9 | 1.7 | 0.00 | 0.01 | 0.00 | 90 | 1012.7 |
| 20260507012006 | 50 | 235 | 0.0 | 0.9 | 0.00 | 0.01 | 0.00 | 90 | 1012.8 |
| 20260507010006 | 51 | 231 | 0.0 | 1.7 | 0.00 | 0.01 | 0.00 | 89 | 1012.8 |
| 20260507005006 | 51 | 275 | 0.0 | 0.9 | 0.00 | 0.01 | 0.00 | 89 | 1012.7 |
| 20260507004006 | 51 | 296 | 0.0 | 0.9 | 0.00 | 0.02 | 0.00 | 88 | 1012.7 |
| 20260507003007 | 51 | 276 | 0.0 | 2.6 | 0.00 | 0.02 | 0.00 | 88 | 1012.8 |
| 20260507002006 | 51 | 76 | 0.0 | 4.3 | 0.00 | 0.02 | 0.00 | 87 | 1012.8 |
| 20260507001006 | 52 | 140 | 0.0 | 0.9 | 0.00 | 0.02 | 0.00 | 87 | 1012.9 |
| 20260507000006 | 52 | 111 | 0.0 | 0.9 | 0.00 | 0.02 | 0.00 | 86 | 1012.8 |
| 20260506235004 | 52 | 54 | 0.0 | 2.6 | 0.00 | 0.02 | 0.00 | 85 | 1012.7 |
| 20260506234006 | 52 | 46 | 0.0 | 2.6 | 0.00 | 0.02 | 0.00 | 84 | 1012.6 |
| 20260506233006 | 53 | 293 | 0.0 | 0.0 | 0.00 | 0.02 | 0.00 | 83 | 1012.6 |
| 20260506232006 | 53 | 293 | 0.0 | 1.7 | 0.00 | 0.03 | 0.00 | 82 | 1012.5 |
| 20260506231005 | 54 | 324 | 0.0 | 1.7 | 0.00 | 0.05 | 0.00 | 81 | 1012.7 |
| 20260506230006 | 54 | 234 | 0.0 | 0.0 | 0.00 | 0.06 | 0.00 | 81 | 1012.7 |
| 20260506225006 | 55 | 237 | 0.0 | 0.0 | 0.00 | 0.06 | 0.00 | 79 | 1012.7 |
| 20260506224006 | 56 | 237 | 0.0 | 0.0 | 0.00 | 0.10 | 0.00 | 77 | 1012.7 |
| 20260506223005 | 56 | 237 | 0.0 | 2.6 | 0.00 | 0.13 | 0.00 | 76 | 1012.7 |
| 20260506222006 | 57 | 203 | 0.9 | 2.6 | 0.00 | 0.17 | 0.00 | 75 | 1012.7 |
| 20260506221006 | 57 | 230 | 0.0 | 0.9 | 0.00 | 0.19 | 0.00 | 75 | 1012.8 |
| 20260506214004 | 58 | 249 | 1.7 | 7.8 | 0.00 | 0.20 | 0.19 | 73 | 1012.6 |
| 20260506213004 | 58 | 245 | 0.9 | 1.7 | 0.00 | 0.21 | 0.19 | 73 | 1012.5 |
| 20260506212004 | 59 | 141 | 0.0 | 2.6 | 0.00 | 0.21 | 0.19 | 71 | 1012.5 |
| 20260506211004 | 59 | 126 | 1.7 | 5.2 | 0.00 | 0.21 | 0.19 | 70 | 1012.3 |
| 20260506210006 | 59 | 166 | 0.9 | 4.3 | 0.00 | 0.21 | 0.19 | 69 | 1012.3 |
| 20260506205006 | 59 | 180 | 2.6 | 4.3 | 0.00 | 0.21 | 0.19 | 69 | 1011.9 |
| 20260506204006 | 60 | 246 | 0.0 | 2.6 | 0.00 | 0.21 | 0.19 | 68 | 1011.9 |
| 20260506203006 | 60 | 223 | 0.9 | 4.3 | 0.00 | 0.21 | 0.19 | 68 | 1011.8 |
| 20260506202007 | 60 | 233 | 1.7 | 2.6 | 0.00 | 0.21 | 0.19 | 68 | 1011.6 |
| 20260506200006 | 61 | 225 | 1.7 | 4.3 | 0.00 | 0.21 | 0.19 | 69 | 1011.4 |
| 20260506195006 | 61 | 232 | 0.9 | 2.6 | 0.00 | 0.21 | 0.19 | 69 | 1011.4 |
| 20260506194008 | 61 | 200 | 0.9 | 2.6 | 0.00 | 0.21 | 0.19 | 70 | 1011.2 |
| 20260506193006 | 61 | 207 | 0.0 | 2.6 | 0.00 | 0.21 | 0.19 | 72 | 1011.1 |
| 20260506192006 | 61 | 217 | 0.9 | 2.6 | 0.00 | 0.21 | 0.19 | 73 | 1010.9 |
| 20260506191006 | 62 | 210 | 1.7 | 6.1 | 0.00 | 0.21 | 0.19 | 73 | 1010.6 |
| 20260506184006 | 63 | 211 | 2.6 | 7.8 | 0.00 | 0.21 | 0.19 | 70 | 1010.1 |
| 20260506183006 | 64 | 196 | 2.6 | 7.0 | 0.00 | 0.21 | 0.19 | 69 | 1010.1 |
| 20260506182005 | 64 | 185 | 4.3 | 7.0 | 0.00 | 0.21 | 0.19 | 66 | 1010.0 |
| 20260506181006 | 64 | 181 | 2.6 | 7.0 | 0.00 | 0.21 | 0.19 | 66 | 1009.9 |
| 20260506180006 | 64 | 190 | 4.3 | 7.0 | 0.00 | 0.21 | 0.19 | 65 | 1009.8 |
| 20260506175006 | 65 | 185 | 2.6 | 7.0 | 0.00 | 0.21 | 0.19 | 65 | 1009.8 |
| 20260506174005 | 66 | 181 | 3.5 | 7.0 | 0.00 | 0.21 | 0.19 | 63 | 1009.6 |
| 20260506172006 | 67 | 183 | 4.3 | 7.8 | 0.00 | 0.21 | 0.19 | 62 | 1009.6 |
| 20260506170006 | 67 | 207 | 4.3 | 10.4 | 0.00 | 0.21 | 0.19 | 60 | 1009.5 |
| 20260506165006 | 68 | 188 | 4.3 | 10.4 | 0.00 | 0.21 | 0.19 | 59 | 1009.5 |
| 20260506164006 | 68 | 191 | 2.6 | 7.0 | 0.00 | 0.21 | 0.19 | 59 | 1009.5 |
| 20260506161006 | 68 | 192 | 1.7 | 7.0 | 0.00 | 0.21 | 0.19 | 57 | 1009.5 |
| 20260506160006 | 68 | 205 | 1.7 | 7.8 | 0.00 | 0.21 | 0.19 | 56 | 1009.5 |
| 20260506155005 | 69 | 176 | 4.3 | 8.7 | 0.00 | 0.21 | 0.19 | 56 | 1009.5 |
| 20260506154006 | 69 | 183 | 6.1 | 10.4 | 0.00 | 0.21 | 0.19 | 57 | 1009.6 |
| 20260506153006 | 69 | 190 | 4.3 | 10.4 | 0.00 | 0.21 | 0.19 | 57 | 1009.6 |
| 20260506152006 | 69 | 164 | 5.2 | 10.4 | 0.00 | 0.21 | 0.19 | 57 | 1009.5 |
| 20260506150006 | 66 | 131 | 0.9 | 4.3 | 0.00 | 0.21 | 0.19 | 63 | 1009.7 |
| 20260506145006 | 66 | 84 | 1.7 | 5.2 | 0.00 | 0.21 | 0.19 | 63 | 1009.7 |
| 20260506143006 | 66 | 37 | 5.2 | 10.4 | 0.00 | 0.21 | 0.19 | 62 | 1009.9 |
| 20260506142006 | 67 | 14 | 4.3 | 7.8 | 0.00 | 0.21 | 0.19 | 63 | 1009.9 |
| 20260506141006 | 67 | 68 | 4.3 | 10.4 | 0.00 | 0.21 | 0.19 | 63 | 1010.0 |
| 20260506140006 | 67 | 107 | 3.5 | 10.4 | 0.00 | 0.21 | 0.19 | 63 | 1010.1 |
| 20260506135006 | 68 | 137 | 2.6 | 7.0 | 0.00 | 0.21 | 0.19 | 59 | 1010.1 |
| 20260506134007 | 69 | 187 | 2.6 | 6.1 | 0.00 | 0.21 | 0.19 | 59 | 1010.1 |
| 20260506132006 | 67 | 142 | 3.5 | 8.7 | 0.00 | 0.21 | 0.19 | 63 | 1010.2 |
| 20260506131006 | 67 | 103 | 0.9 | 5.2 | 0.01 | 0.21 | 0.19 | 63 | 1010.2 |
| 20260506130007 | 66 | 17 | 0.9 | 5.2 | 0.01 | 0.21 | 0.19 | 65 | 1010.2 |
| 20260506125006 | 64 | 262 | 1.7 | 5.2 | 0.01 | 0.21 | 0.19 | 65 | 1010.2 |
| 20260506124006 | 62 | 61 | 1.7 | 5.2 | 0.01 | 0.21 | 0.19 | 78 | 1010.3 |
| 20260506123006 | 61 | 24 | 2.6 | 7.8 | 0.01 | 0.21 | 0.19 | 82 | 1010.4 |
| 20260506122008 | 61 | 5 | 4.3 | 10.4 | 0.01 | 0.21 | 0.19 | 79 | 1010.5 |
| 20260506121006 | 63 | 337 | 4.3 | 10.4 | 0.00 | 0.20 | 0.18 | 72 | 1010.4 |
| 20260506120006 | 65 | 323 | 7.8 | 13.0 | 0.00 | 0.20 | 0.18 | 68 | 1010.4 |
| 20260506115006 | 68 | 244 | 1.7 | 5.2 | 0.00 | 0.20 | 0.18 | 57 | 1010.2 |
| 20260506114005 | 66 | 242 | 4.3 | 7.8 | 0.00 | 0.20 | 0.18 | 61 | 1010.2 |
| 20260506113006 | 66 | 139 | 2.6 | 6.1 | 0.00 | 0.20 | 0.18 | 62 | 1010.2 |
| 20260506112006 | 67 | 117 | 2.6 | 7.0 | 0.00 | 0.20 | 0.18 | 60 | 1010.3 |
| 20260506110005 | 67 | 332 | 0.9 | 4.3 | 0.00 | 0.20 | 0.18 | 60 | 1010.5 |
| 20260506104006 | 66 | 74 | 2.6 | 6.1 | 0.00 | 0.20 | 0.18 | 62 | 1010.8 |
| 20260506103006 | 65 | 92 | 1.7 | 4.3 | 0.00 | 0.20 | 0.18 | 64 | 1010.9 |
| 20260506102006 | 65 | 141 | 1.7 | 4.3 | 0.00 | 0.20 | 0.18 | 61 | 1011.0 |
| 20260506101005 | 65 | 170 | 0.9 | 2.6 | 0.00 | 0.20 | 0.18 | 64 | 1011.0 |
| 20260506100005 | 64 | 222 | 0.9 | 2.6 | 0.00 | 0.20 | 0.18 | 65 | 1011.0 |
| 20260506095006 | 63 | 10 | 0.9 | 4.3 | 0.00 | 0.20 | 0.18 | 67 | 1011.0 |
| 20260506094005 | 64 | 326 | 1.7 | 4.3 | 0.00 | 0.20 | 0.18 | 66 | 1011.0 |
| 20260506092005 | 63 | 334 | 0.0 | 1.7 | 0.00 | 0.20 | 0.18 | 69 | 1010.9 |
| 20260506091005 | 63 | 331 | 0.9 | 2.6 | 0.00 | 0.20 | 0.18 | 68 | 1010.8 |